Lewistown, MT

6:11 PM MST on February 27, 2017 (GMT -0700)
Lewistown Municipal

Weather History for KLWT - April, 2013

Change the Weather History Date:

Monday, April 22, 2013

  Actual Average Record
Temperature  
Mean Temperature 25 °F 43 °F  
Max Temperature 33 °F 56 °F 86 °F (1906)
Min Temperature 17 °F 31 °F 1 °F (1967)
Degree Days  
Heating Degree Days 40 22  
Month to date heating degree days 689 543  
Since 1 July heating degree days 7243 7342  
Cooling Degree Days 0 0  
Month to date cooling degree days 0 0  
Year to date cooling degree days 0 0  
Moisture  
Dew Point 18 °F    
Average Humidity 69    
Maximum Humidity 92    
Minimum Humidity 45    
Precipitation  
Precipitation 0.02 in 0.05 in 0.91 in (2011)
Month to date precipitation 1.15 0.96  
Year to date precipitation 3.28 2.96  
Snow  
Snow 0.00 in - - ()
Snow Depth 3.00 in    
Sea Level Pressure  
Sea Level Pressure 30.39 in    
Wind  
Wind Speed 4 mph (NNE)    
Max Wind Speed 12 mph    
Max Gust Speed 14 mph    
Visibility 6 miles    
Events Snow    
T = Trace of Precipitation, MM = Missing Value Source: NWS Daily Summary

Daily Weather History Graph

Daily Weather History Graph

Search for Another Location

Airport or City:

Trip Planner

Search our weather history database for the weather conditions in past years. The results will help you decide how hot, cold, wet, or windy it might be!

Date:

Astronomy

Apr. 22, 2013 Rise Set
Actual Time 6:16 AM MDT 8:16 PM MDT
Civil Twilight 5:44 AM MDT 8:49 PM MDT
Nautical Twilight 5:03 AM MDT 9:30 PM MDT
Astronomical Twilight 4:19 AM MDT 10:15 PM MDT
Moon 4:58 PM MDT (4/22) 4:26 AM MDT (4/22)
Length of Visible Light 15h 05m
Length of Day
13h 59m
Waxing Gibbous, 88% of the Moon is Illuminated
Apr 22
Waxing Gibbous
Apr 25
Full
May 2
Last Quarter
May 9
New
May 17
First Quarter

Hourly Weather History & Observations

Time (MDT) Temp. Windchill Dew Point Humidity Pressure Visibility Wind Dir Wind Speed Gust Speed Precip Events Conditions
12:19 AM 21.2 °F 12.6 °F 19.4 °F 93% 30.24 in 8.0 mi North 6.9 mph - 0.00 in   Overcast
12:54 AM 19.9 °F 12.1 °F 19.0 °F 96% 30.39 in 5.0 mi North 5.8 mph - 0.00 in Snow Light Snow
1:30 AM 21.2 °F 14.9 °F 19.4 °F 93% 30.25 in 4.0 mi North 4.6 mph - 0.00 in Snow Light Snow
1:52 AM 21.2 °F - 19.4 °F 93% 30.26 in 4.0 mi Calm Calm - 0.00 in Snow Light Snow
1:54 AM 21.0 °F - 19.0 °F 92% 30.39 in 4.0 mi Calm Calm - 0.00 in Snow Light Snow
2:17 AM 21.2 °F - 19.4 °F 93% 30.27 in 3.0 mi Calm Calm - 0.00 in Snow Light Snow
2:27 AM 21.2 °F - 19.4 °F 93% 30.27 in 2.5 mi Calm Calm - 0.00 in Snow Light Snow
2:54 AM 21.0 °F - 19.0 °F 92% 30.40 in 2.5 mi Calm Calm - 0.00 in Snow Light Snow
3:19 AM 21.2 °F 16.4 °F 19.4 °F 93% 30.27 in 1.5 mi NNW 3.5 mph - 0.01 in Snow Light Snow
3:37 AM 21.2 °F 13.6 °F 19.4 °F 93% 30.27 in 2.5 mi North 5.8 mph - 0.01 in Snow Light Snow
3:44 AM 21.2 °F 14.9 °F 19.4 °F 93% 30.27 in 4.0 mi North 4.6 mph - 0.01 in Snow Light Snow
3:50 AM 21.2 °F - 19.4 °F 93% 30.27 in 4.0 mi North - - 0.01 in Snow Light Snow
3:51 AM 21.0 °F - 19.0 °F 92% 30.40 in 4.0 mi North - - 0.01 in Snow Light Snow
3:58 AM 21.2 °F 12.6 °F 19.4 °F 93% 30.27 in 4.0 mi North 6.9 mph - 0.00 in Snow Light Snow
4:14 AM 21.2 °F 11.7 °F 19.4 °F 93% 30.28 in 1.8 mi NNE 8.1 mph - 0.00 in Snow Light Snow
4:25 AM 21.2 °F 11.7 °F 17.6 °F 86% 30.28 in 1.2 mi ESE 8.1 mph - 0.00 in Snow Light Snow
4:35 AM 19.4 °F 8.6 °F 17.6 °F 93% 30.28 in 2.0 mi East 9.2 mph - 0.00 in Snow Light Snow
4:47 AM 19.4 °F 8.6 °F 17.6 °F 93% 30.29 in 3.0 mi ESE 9.2 mph - 0.00 in Snow Light Snow
4:54 AM 19.9 °F 10.1 °F 17.1 °F 89% 30.43 in 4.0 mi ESE 8.1 mph - 0.00 in Snow Light Snow
5:05 AM 19.4 °F 9.5 °F 17.6 °F 93% 30.30 in 2.5 mi ESE 8.1 mph - 0.01 in Snow Light Snow
5:20 AM 19.4 °F 9.5 °F 17.6 °F 93% 30.30 in 4.0 mi ESE 8.1 mph - 0.01 in Snow Light Snow
5:43 AM 19.4 °F 9.5 °F 15.8 °F 86% 30.31 in 7.0 mi ESE 8.1 mph - 0.01 in   Overcast
5:54 AM 19.0 °F 9.0 °F 16.0 °F 88% 30.46 in 8.0 mi ESE 8.1 mph - 0.01 in   Overcast
6:54 AM 19.0 °F 12.3 °F 15.1 °F 85% 30.48 in 10.0 mi SE 4.6 mph - N/A   Overcast
7:35 AM 17.6 °F - 15.8 °F 93% 30.35 in 10.0 mi Calm Calm - N/A   Mostly Cloudy
7:46 AM 17.6 °F - 15.8 °F 93% 30.36 in 10.0 mi Calm Calm - N/A   Scattered Clouds
7:54 AM 18.0 °F - 15.1 °F 88% 30.51 in 10.0 mi Calm Calm - N/A   Partly Cloudy
8:54 AM 21.0 °F - 15.1 °F 78% 30.52 in 10.0 mi Calm Calm - N/A   Clear
9:54 AM 21.0 °F - 16.0 °F 81% 30.53 in 10.0 mi Calm Calm - N/A   Clear
10:54 AM 23.0 °F 18.4 °F 12.9 °F 65% 30.53 in 10.0 mi West 3.5 mph - N/A   Scattered Clouds
11:26 AM 24.8 °F 19.1 °F 17.6 °F 74% 30.40 in 2.5 mi NW 4.6 mph - 0.00 in Snow Light Snow
11:40 AM 24.8 °F 20.5 °F 15.8 °F 69% 30.40 in 5.0 mi WNW 3.5 mph - 0.00 in Snow Light Snow
11:54 AM 26.1 °F - 18.0 °F 71% 30.53 in 2.5 mi Calm Calm - 0.00 in Snow Light Snow
12:11 PM 24.8 °F - 19.4 °F 80% 30.40 in 1.8 mi Calm Calm - 0.00 in Snow Light Snow
12:17 PM 24.8 °F 19.1 °F 17.6 °F 74% 30.40 in 2.0 mi NW 4.6 mph - 0.00 in Snow Light Snow
12:38 PM 24.8 °F - 19.4 °F 80% 30.39 in 1.0 mi Calm Calm - 0.00 in Snow Light Snow
12:50 PM 26.6 °F 21.2 °F 21.2 °F 80% 30.39 in 3.0 mi NNE 4.6 mph - 0.00 in Snow Light Snow
12:54 PM 27.0 °F - 19.9 °F 75% 30.53 in 7.0 mi Calm Calm - 0.00 in Snow Light Snow
1:14 PM 26.6 °F 22.6 °F 19.4 °F 74% 30.39 in 8.0 mi North 3.5 mph - 0.00 in Snow Light Snow
1:35 PM 28.4 °F 23.3 °F 21.2 °F 74% 30.38 in 3.0 mi North 4.6 mph - 0.00 in Snow Light Snow
1:54 PM 28.0 °F 24.2 °F 18.0 °F 66% 30.51 in 9.0 mi Variable 3.5 mph - 0.00 in   Mostly Cloudy
2:54 PM 30.0 °F 26.5 °F 17.1 °F 59% 30.49 in 10.0 mi Variable 3.5 mph - N/A   Mostly Cloudy
3:54 PM 32.0 °F 27.5 °F 18.0 °F 56% 30.47 in 10.0 mi Variable 4.6 mph - N/A   Mostly Cloudy
4:54 PM 30.0 °F - 14.0 °F 51% 30.47 in 10.0 mi Calm Calm - N/A   Overcast
5:54 PM 32.0 °F 26.4 °F 14.0 °F 48% 30.45 in 10.0 mi West 5.8 mph - N/A   Scattered Clouds
6:54 PM 30.9 °F 25.2 °F 14.0 °F 50% 30.45 in 10.0 mi NW 5.8 mph - N/A   Partly Cloudy
7:54 PM 28.9 °F 22.8 °F 14.0 °F 54% 30.46 in 10.0 mi SW 5.8 mph - N/A   Clear
8:54 PM 25.0 °F 17.1 °F 18.0 °F 75% 30.46 in 10.0 mi SSW 6.9 mph - N/A   Clear
9:54 PM 23.0 °F 14.7 °F 18.0 °F 81% 30.47 in 10.0 mi South 6.9 mph - N/A   Clear
10:54 PM 21.9 °F 12.5 °F 15.1 °F 75% 30.45 in 10.0 mi South 8.1 mph - N/A   Clear
11:54 PM 19.0 °F 13.9 °F 14.0 °F 81% 30.43 in 10.0 mi ESE 3.5 mph - N/A   Clear